Hourly Weather Ruzhin

Today, 22 April, Thursday

Time Temperature Precipitation Wind Pressure Humidity
00:00 +7°C° 0 mm 3 mps 739 mmHg 80%
01:00 +5°C° 0 mm 3 mps 740 mmHg 81%
02:00 +5°C° 0 mm 3 mps 740 mmHg 83%
03:00 +5°C° 0 mm 3 mps 740 mmHg 83%
04:00 +5°C° 0 mm 3 mps 740 mmHg 84%
05:00 +4°C° 0 mm 3 mps 740 mmHg 84%
06:00 +7°C° 0 mm 3 mps 740 mmHg 78%
07:00 +8°C° 0 mm 4 mps 740 mmHg 72%
08:00 +11°C° 0 mm 4 mps 741 mmHg 66%
09:00 +12°C° 0 mm 5 mps 741 mmHg 61%
10:00 +14°C° 0 mm 5 mps 741 mmHg 55%
11:00 +15°C° 0 mm 6 mps 741 mmHg 49%
12:00 +15°C° 0 mm 6 mps 740 mmHg 49%
13:00 +15°C° 0 mm 6 mps 740 mmHg 49%
14:00 +16°C° 0 mm 6 mps 740 mmHg 48%
15:00 +15°C° 0 mm 5 mps 740 mmHg 51%
16:00 +15°C° 0 mm 5 mps 739 mmHg 54%
17:00 +14°C° 0 mm 4 mps 739 mmHg 57%
18:00 +13°C° 0.2 mm 4 mps 739 mmHg 65%
19:00 +11°C° 0.2 mm 4 mps 739 mmHg 72%
20:00 +10°C° 0.2 mm 3 mps 739 mmHg 79%
21:00 +9°C° 0.1 mm 3 mps 739 mmHg 83%
22:00 +8°C° 0.1 mm 3 mps 739 mmHg 87%
23:00 +8°C° 0.1 mm 2 mps 739 mmHg 91%

Tomorrow, 23 April, Friday

Time Temperature Precipitation Wind Pressure Humidity
00:00 +7°C° 0 mm 3 mps 740 mmHg 91%
01:00 +7°C° 0 mm 3 mps 740 mmHg 92%
02:00 +5°C° 0 mm 3 mps 740 mmHg 92%
03:00 +5°C° 0 mm 3 mps 740 mmHg 90%
04:00 +5°C° 0 mm 3 mps 740 mmHg 87%
05:00 +4°C° 0 mm 3 mps 741 mmHg 85%
06:00 +5°C° 0.1 mm 3 mps 741 mmHg 80%
07:00 +5°C° 0.1 mm 3 mps 741 mmHg 75%
08:00 +5°C° 0.1 mm 3 mps 742 mmHg 71%
09:00 +7°C° 0 mm 3 mps 742 mmHg 66%
10:00 +7°C° 0 mm 3 mps 742 mmHg 60%
11:00 +7°C° 0 mm 4 mps 742 mmHg 55%
12:00 +7°C° 0 mm 4 mps 742 mmHg 52%
13:00 +9°C° 0 mm 3 mps 742 mmHg 50%
14:00 +10°C° 0 mm 3 mps 741 mmHg 47%
15:00 +8°C° 0.1 mm 4 mps 741 mmHg 48%
16:00 +8°C° 0.1 mm 4 mps 741 mmHg 50%
17:00 +8°C° 0.1 mm 4 mps 741 mmHg 51%
18:00 +7°C° 0.2 mm 4 mps 741 mmHg 59%
19:00 +7°C° 0.2 mm 3 mps 742 mmHg 68%
20:00 +5°C° 0.2 mm 3 mps 742 mmHg 76%
21:00 +4°C° 0 mm 3 mps 742 mmHg 78%
22:00 +3°C° 0 mm 3 mps 742 mmHg 79%
23:00 +2°C° 0 mm 3 mps 742 mmHg 81%

Day after tomorrow, 24 April, Saturday

Time Temperature Precipitation Wind Pressure Humidity
00:00 +2°C° 0 mm 3 mps 742 mmHg 82%
01:00 +1°C° 0 mm 3 mps 742 mmHg 83%
02:00 +1°C° 0 mm 3 mps 741 mmHg 83%
03:00 0°C° 0 mm 4 mps 741 mmHg 85%
04:00 0°C° 0 mm 4 mps 741 mmHg 86%
05:00 0°C° 0 mm 5 mps 741 mmHg 87%
06:00 +1°C° 0 mm 6 mps 742 mmHg 79%
07:00 +1°C° 0 mm 6 mps 742 mmHg 72%
08:00 +2°C° 0 mm 7 mps 743 mmHg 64%
09:00 +3°C° 0 mm 7 mps 743 mmHg 57%
10:00 +4°C° 0 mm 7 mps 743 mmHg 49%
11:00 +5°C° 0 mm 7 mps 743 mmHg 42%
12:00 +5°C° 0 mm 7 mps 743 mmHg 41%
13:00 +5°C° 0 mm 7 mps 743 mmHg 40%
14:00 +6°C° 0 mm 7 mps 743 mmHg 39%
15:00 +5°C° 0 mm 6 mps 743 mmHg 41%
16:00 +5°C° 0 mm 6 mps 743 mmHg 42%
17:00 +6°C° 0 mm 5 mps 743 mmHg 44%
18:00 +5°C° 0 mm 4 mps 744 mmHg 51%
19:00 +4°C° 0 mm 4 mps 744 mmHg 58%
20:00 +2°C° 0 mm 3 mps 744 mmHg 66%
21:00 +2°C° 0 mm 3 mps 744 mmHg 68%
22:00 +1°C° 0 mm 3 mps 744 mmHg 70%
23:00 +1°C° 0 mm 3 mps 744 mmHg 72%

25 April, Sunday

Time Temperature Precipitation Wind Pressure Humidity
00:00 0°C° 0 mm 3 mps 744 mmHg 73%
01:00 0°C° 0 mm 3 mps 744 mmHg 74%
02:00 0°C° 0 mm 3 mps 743 mmHg 75%
03:00 0°C° 0 mm 3 mps 743 mmHg 74%
04:00 0°C° 0 mm 3 mps 743 mmHg 74%
05:00 0°C° 0 mm 3 mps 743 mmHg 74%
06:00 +2°C° 0 mm 3 mps 743 mmHg 72%
07:00 +3°C° 0 mm 4 mps 743 mmHg 70%
08:00 +4°C° 0 mm 4 mps 742 mmHg 68%
09:00 +5°C° 0.2 mm 4 mps 742 mmHg 72%
10:00 +5°C° 0.2 mm 4 mps 742 mmHg 76%
11:00 +5°C° 0.2 mm 5 mps 742 mmHg 81%
12:00 +5°C° 0.2 mm 4 mps 742 mmHg 79%
13:00 +6°C° 0.2 mm 4 mps 742 mmHg 77%
14:00 +7°C° 0.2 mm 3 mps 742 mmHg 75%
15:00 +6°C° 0.1 mm 4 mps 741 mmHg 71%
16:00 +6°C° 0.1 mm 4 mps 741 mmHg 67%
17:00 +7°C° 0.1 mm 5 mps 741 mmHg 63%
18:00 +5°C° 0 mm 4 mps 741 mmHg 67%
19:00 +4°C° 0 mm 3 mps 742 mmHg 70%
20:00 +2°C° 0 mm 3 mps 742 mmHg 74%
21:00 +3°C° 0 mm 2 mps 742 mmHg 74%
22:00 +2°C° 0 mm 2 mps 742 mmHg 74%
23:00 +1°C° 0 mm 2 mps 742 mmHg 74%

26 April, Monday

Time Temperature Precipitation Wind Pressure Humidity
00:00 +1°C° 0 mm 2 mps 742 mmHg 74%
01:00 +1°C° 0 mm 2 mps 742 mmHg 74%
02:00 +1°C° 0 mm 2 mps 741 mmHg 74%
03:00 +1°C° 0 mm 2 mps 741 mmHg 77%
04:00 +1°C° 0 mm 2 mps 741 mmHg 80%
05:00 -1°C° 0 mm 3 mps 741 mmHg 83%
06:00 +1°C° 0 mm 3 mps 741 mmHg 77%
07:00 +1°C° 0 mm 4 mps 741 mmHg 71%
08:00 +3°C° 0 mm 5 mps 741 mmHg 65%
09:00 +3°C° 0.2 mm 5 mps 741 mmHg 60%
10:00 +4°C° 0.2 mm 6 mps 741 mmHg 55%
11:00 +5°C° 0.2 mm 6 mps 741 mmHg 50%
12:00 +5°C° 0.1 mm 6 mps 741 mmHg 48%
13:00 +5°C° 0.1 mm 7 mps 741 mmHg 47%
14:00 +5°C° 0.1 mm 7 mps 741 mmHg 45%
15:00 +5°C° 0 mm 7 mps 740 mmHg 45%
16:00 +5°C° 0 mm 6 mps 740 mmHg 46%
17:00 +5°C° 0 mm 6 mps 740 mmHg 46%
18:00 +5°C° 0 mm 4 mps 740 mmHg 52%
19:00 +3°C° 0 mm 3 mps 740 mmHg 57%
20:00 +3°C° 0 mm 2 mps 741 mmHg 62%
21:00 +2°C° 0 mm 2 mps 741 mmHg 63%
22:00 +2°C° 0 mm 2 mps 741 mmHg 64%
23:00 +1°C° 0 mm 3 mps 741 mmHg 66%

27 April, Tuesday

Time Temperature Precipitation Wind Pressure Humidity
00:00 0°C° 0 mm 3 mps 741 mmHg 67%
01:00 0°C° 0 mm 3 mps 741 mmHg 68%
02:00 0°C° 0 mm 3 mps 740 mmHg 69%
03:00 -1°C° 0 mm 3 mps 740 mmHg 70%
04:00 -1°C° 0 mm 3 mps 740 mmHg 71%
05:00 -1°C° 0 mm 3 mps 740 mmHg 71%
06:00 +1°C° 0 mm 3 mps 741 mmHg 66%
07:00 +3°C° 0 mm 3 mps 741 mmHg 61%
08:00 +6°C° 0 mm 2 mps 741 mmHg 55%
09:00 +8°C° 0 mm 3 mps 741 mmHg 51%
10:00 +9°C° 0 mm 3 mps 741 mmHg 48%
11:00 +10°C° 0 mm 3 mps 740 mmHg 44%
12:00 +11°C° 0 mm 3 mps 740 mmHg 42%
13:00 +12°C° 0 mm 3 mps 740 mmHg 41%
14:00 +12°C° 0 mm 3 mps 739 mmHg 40%
15:00 +12°C° 0 mm 3 mps 739 mmHg 42%
16:00 +12°C° 0 mm 3 mps 739 mmHg 44%
17:00 +12°C° 0 mm 3 mps 739 mmHg 46%
18:00 +10°C° 0 mm 3 mps 739 mmHg 58%
19:00 +9°C° 0 mm 3 mps 739 mmHg 69%
20:00 +7°C° 0 mm 3 mps 739 mmHg 80%
21:00 +7°C° 0 mm 3 mps 738 mmHg 84%
22:00 +5°C° 0 mm 3 mps 738 mmHg 88%
23:00 +5°C° 0 mm 3 mps 738 mmHg 92%
Show more